Terug naar catalogus

FENGYUN 1C DEB

ActiefPO
NORAD 37427·DEBRIS·🇨🇳 China

Gelanceerd May 10, 1999 vanaf Taiyuan Satellite Launch Center

Loading…

Volgende Passages (komende 24 uur)

TLE

VerouderendSource: Space-Track

Epoch: Sep 9, 2026, 17:38 UTC

1 37427U 99025EGV 26252.73479134  .00004729  00000-0  26892-3 0  9995
2 37427  98.6400  69.5176 0169627 126.0229 235.6849 15.02011798643867

Volg FENGYUN 1C DEB in realtime met AllMySat

Download on the App Store